QPF
0.04 0.03 0.02 0.02 0.01 0.01 0.02 0.02 0.01 0.01 0.01 0.01 0.01 0.01 0.01 0.01 0.01 0.01 0.01 0.01 0.01 0.01 0.02 0.03 0.04 0.05 0.05 0.05 0.04 0.04 0.03 0.03 0.02 0.02 0.01 0.01 0.01 0.01 0.01 0.01 0.01 0.01 0.01
0.05 0.03 0.02 0.03 0.02 0.02 0.03 0.03 0.03 0.03 0.03 0.03 0.02 0.01 0.01 0.01 0.01 0.02 0.01 0.01 0.01 0.01 0.01 0.02 0.02 0.04 0.05 0.06 0.06 0.06 0.06 0.06 0.05 0.04 0.03 0.02 0.02 0.01 0.01 0.01 0.01 0.01 0.01
0.06 0.04 0.03 0.03 0.03 0.02 0.02 0.03 0.03 0.03 0.03 0.03 0.03 0.02 0.02 0.02 0.01 0.02 0.02 0.02 0.02 0.02 0.01 0.01 0.02 0.03 0.03 0.04 0.05 0.06 0.07 0.08 0.09 0.09 0.07 0.04 0.03 0.02 0.02 0.01 0.01 0.01 0.01
0.07 0.07 0.07 0.06 0.06 0.06 0.04 0.03 0.03 0.04 0.03 0.03 0.03 0.03 0.03 0.03 0.02 0.02 0.02 0.02 0.01 0.02 0.02 0.02 0.02 0.02 0.03 0.04 0.05 0.06 0.07 0.07 0.08 0.08 0.08 0.07 0.05 0.04 0.03 0.02 0.01 0.01 0.01
0.06 0.05 0.06 0.08 0.08 0.07 0.05 0.03 0.03 0.04 0.04 0.03 0.03 0.04 0.04 0.04 0.03 0.02 0.02 0.02 0.01 0.02 0.02 0.02 0.02 0.02 0.02 0.03 0.05 0.05 0.06 0.07 0.09 0.09 0.09 0.08 0.07 0.06 0.05 0.04 0.03 0.02 0.02
0.05 0.05 0.06 0.06 0.07 0.08 0.08 0.06 0.05 0.04 0.04 0.04 0.04 0.04 0.05 0.04 0.04 0.03 0.03 0.02 0.02 0.02 0.02 0.02 0.02 0.02 0.03 0.04 0.04 0.05 0.05 0.06 0.07 0.08 0.09 0.08 0.08 0.08 0.07 0.06 0.05 0.04 0.03
0.04 0.04 0.04 0.06 0.06 0.07 0.10 0.12 0.12 0.09 0.06 0.05 0.05 0.05 0.05 0.04 0.04 0.03 0.03 0.03 0.02 0.03 0.03 0.02 0.02 0.02 0.02 0.02 0.03 0.04 0.05 0.05 0.06 0.07 0.08 0.09 0.09 0.09 0.08 0.07 0.06 0.05 0.04
0.02 0.03 0.02 0.02 0.02 0.03 0.05 0.07 0.06 0.05 0.05 0.05 0.04 0.04 0.05 0.05 0.03 0.03 0.03 0.02 0.02 0.03 0.03 0.03 0.03 0.02 0.02 0.02 0.02 0.03 0.03 0.04 0.05 0.06 0.08 0.09 0.09 0.09 0.09 0.09 0.08 0.07 0.05
0.00 0.00 0.00 0.00 0.01 0.01 0.01 0.03 0.03 0.03 0.04 0.04 0.05 0.05 0.05 0.05 0.04 0.03 0.03 0.02 0.03 0.03 0.03 0.03 0.02 0.03 0.03 0.03 0.03 0.03 0.03 0.03 0.04 0.05 0.07 0.08 0.09 0.09 0.11 0.11 0.11 0.10 0.08
0.00 0.00 0.00 0.00 0.00 0.00 0.00 0.01 0.01 0.02 0.04 0.04 0.05 0.07 0.07 0.07 0.05 0.03 0.02 0.02 0.02 0.03 0.03 0.02 0.02 0.02 0.03 0.04 0.04 0.04 0.04 0.04 0.04 0.05 0.06 0.08 0.09 0.10 0.11 0.11 0.12 0.12 0.11
0.00 0.00 0.00 0.00 0.00 0.00 0.00 0.01 0.01 0.01 0.03 0.04 0.04 0.05 0.06 0.06 0.05 0.04 0.02 0.02 0.02 0.01 0.02 0.02 0.02 0.02 0.02 0.02 0.03 0.04 0.04 0.04 0.05 0.05 0.07 0.09 0.10 0.10 0.10 0.10 0.11 0.13 0.13
0.00 0.00 0.00 0.00 0.00 0.00 0.00 0.00 0.01 0.01 0.01 0.02 0.03 0.04 0.04 0.04 0.03 0.03 0.03 0.02 0.02 0.01 0.01 0.02 0.02 0.02 0.02 0.02 0.03 0.04 0.04 0.04 0.05 0.06 0.07 0.09 0.11 0.11 0.10 0.10 0.11 0.13 0.15
0.00 0.00 0.00 0.00 0.00 0.00 0.00 0.00 0.00 0.00 0.01 0.01 0.02 0.02 0.02 0.02 0.03 0.03 0.03 0.03 0.02 0.02 0.02 0.01 0.01 0.02 0.02 0.03 0.03 0.04 0.05 0.05 0.05 0.06 0.07 0.08 0.09 0.09 0.09 0.09 0.09 0.11 0.14
0.00 0.00 0.00 0.00 0.00 0.00 0.00 0.00 0.00 0.00 0.01 0.01 0.02 0.02 0.02 0.02 0.03 0.02 0.02 0.02 0.02 0.02 0.02 0.02 0.02 0.02 0.02 0.03 0.04 0.04 0.03 0.04 0.05 0.05 0.06 0.07 0.08 0.07 0.07 0.07 0.08 0.09 0.10
0.00 0.00 0.00 0.00 0.00 0.00 0.00 0.00 0.00 0.00 0.00 0.00 0.01 0.01 0.01 0.01 0.02 0.03 0.03 0.03 0.03 0.02 0.01 0.01 0.02 0.03 0.03 0.02 0.03 0.03 0.02 0.03 0.04 0.05 0.06 0.06 0.06 0.06 0.05 0.06 0.06 0.07 0.07
0.00 0.00 0.00 0.00 0.00 0.00 0.00 0.00 0.00 0.00 0.00 0.00 0.00 0.00 0.00 0.00 0.00 0.01 0.01 0.02 0.02 0.03 0.02 0.01 0.01 0.02 0.03 0.03 0.03 0.03 0.03 0.04 0.04 0.04 0.04 0.04 0.05 0.05 0.05 0.05 0.05 0.05 0.05
0.00 0.00 0.00 0.00 0.00 0.00 0.00 0.00 0.00 0.00 0.00 0.00 0.00 0.00 0.00 0.00 0.00 0.00 0.00 0.00 0.01 0.01 0.01 0.01 0.01 0.02 0.02 0.02 0.03 0.03 0.03 0.03 0.03 0.03 0.03 0.03 0.04 0.04 0.03 0.04 0.04 0.04 0.04
0.00 0.00 0.00 0.00 0.00 0.00 0.00 0.00 0.00 0.00 0.00 0.00 0.00 0.00 0.00 0.00 0.00 0.00 0.00 0.00 0.00 0.01 0.01 0.01 0.01 0.01 0.01 0.01 0.02 0.02 0.02 0.02 0.02 0.02 0.02 0.03 0.03 0.03 0.03 0.03 0.03 0.04 0.04
0.00 0.00 0.00 0.00 0.00 0.00 0.00 0.00 0.00 0.00 0.00 0.00 0.00 0.00 0.00 0.00 0.00 0.01 0.01 0.01 0.01 0.01 0.01 0.01 0.01 0.00 0.01 0.01 0.01 0.02 0.02 0.01 0.01 0.02 0.02 0.02 0.02 0.02 0.03 0.03 0.03 0.03 0.04
0.00 0.00 0.00 0.00 0.00 0.00 0.00 0.00 0.00 0.00 0.00 0.00 0.00 0.00 0.00 0.00 0.01 0.01 0.01 0.01 0.01 0.01 0.01 0.01 0.01 0.01 0.00 0.00 0.01 0.01 0.01 0.01 0.01 0.01 0.02 0.02 0.02 0.02 0.02 0.02 0.02 0.03 0.03
0.00 0.00 0.00 0.00 0.00 0.00 0.00 0.00 0.00 0.00 0.00 0.00 0.00 0.00 0.00 0.00 0.01 0.01 0.01 0.00 0.00 0.01 0.01 0.01 0.01 0.01 0.01 0.01 0.01 0.01 0.01 0.01 0.01 0.01 0.01 0.01 0.01 0.01 0.02 0.02 0.02 0.02 0.02
0.00 0.00 0.00 0.00 0.00 0.00 0.00 0.00 0.00 0.00 0.00 0.00 0.00 0.00 0.00 0.00 0.00 0.00 0.01 0.01 0.01 0.01 0.01 0.01 0.01 0.01 0.01 0.01 0.01 0.01 0.01 0.01 0.01 0.00 0.01 0.01 0.01 0.02 0.02 0.02 0.02 0.02 0.02
0.00 0.00 0.00 0.00 0.00 0.00 0.00 0.00 0.00 0.00 0.00 0.00 0.00 0.00 0.00 0.01 0.01 0.00 0.00 0.01 0.01 0.01 0.01 0.01 0.01 0.01 0.01 0.01 0.01 0.01 0.01 0.01 0.01 0.01 0.01 0.01 0.01 0.01 0.01 0.02 0.02 0.02 0.02
0.00 0.00 0.00 0.00 0.00 0.01 0.01 0.00 0.00 0.00 0.00 0.00 0.00 0.01 0.01 0.01 0.01 0.01 0.01 0.01 0.01 0.01 0.01 0.01 0.01 0.01 0.01 0.01 0.01 0.02 0.02 0.02 0.01 0.01 0.01 0.02 0.01 0.02 0.02 0.02 0.02 0.02 0.02
0.00 0.00 0.00 0.00 0.01 0.01 0.01 0.01 0.01 0.00 0.00 0.00 0.00 0.01 0.01 0.01 0.01 0.01 0.01 0.01 0.01 0.02 0.02 0.02 0.02 0.02 0.03 0.03 0.03 0.02 0.03 0.04 0.03 0.02 0.02 0.02 0.03 0.03 0.03 0.03 0.02 0.02 0.02
0.00 0.00 0.00 0.00 0.01 0.01 0.01 0.01 0.01 0.01 0.01 0.01 0.00 0.00 0.00 0.00 0.00 0.00 0.01 0.01 0.02 0.02 0.02 0.03 0.02 0.02 0.02 0.02 0.02 0.02 0.03 0.04 0.04 0.03 0.03 0.04 0.05 0.05 0.05 0.04 0.03 0.03 0.03
MSLP
1017.80 1017.54 1017.24 1016.94 1016.65 1016.38 1016.16 1015.96 1015.77 1015.59 1015.41 1015.21 1015.00 1014.80 1014.61 1014.44 1014.29 1014.17 1014.06 1013.96 1013.84 1013.72 1013.61 1013.52 1013.46 1013.47 1013.53 1013.66 1013.83 1014.04 1014.24 1014.44 1014.60 1014.73 1014.84 1014.93 1015.01 1015.09 1015.18 1015.29 1015.40 1015.51 1015.61
1017.90 1017.63 1017.33 1017.03 1016.75 1016.49 1016.26 1016.05 1015.84 1015.62 1015.38 1015.12 1014.84 1014.57 1014.32 1014.09 1013.89 1013.72 1013.57 1013.43 1013.30 1013.17 1013.04 1012.93 1012.86 1012.84 1012.86 1012.94 1013.07 1013.23 1013.40 1013.59 1013.76 1013.93 1014.09 1014.24 1014.38 1014.52 1014.66 1014.78 1014.90 1015.00 1015.09
1017.97 1017.68 1017.39 1017.11 1016.85 1016.62 1016.40 1016.18 1015.94 1015.69 1015.39 1015.08 1014.74 1014.41 1014.09 1013.80 1013.55 1013.33 1013.14 1012.97 1012.82 1012.67 1012.54 1012.42 1012.33 1012.28 1012.26 1012.29 1012.35 1012.45 1012.58 1012.74 1012.91 1013.10 1013.31 1013.52 1013.73 1013.93 1014.12 1014.28 1014.41 1014.51 1014.60
1018.02 1017.73 1017.45 1017.20 1016.97 1016.76 1016.55 1016.33 1016.07 1015.78 1015.45 1015.08 1014.68 1014.29 1013.91 1013.57 1013.26 1013.00 1012.77 1012.58 1012.41 1012.26 1012.12 1012.00 1011.89 1011.81 1011.75 1011.72 1011.71 1011.74 1011.81 1011.92 1012.07 1012.26 1012.49 1012.75 1013.02 1013.29 1013.53 1013.73 1013.89 1014.00 1014.08
1018.08 1017.80 1017.53 1017.31 1017.10 1016.91 1016.71 1016.49 1016.21 1015.89 1015.51 1015.10 1014.66 1014.21 1013.79 1013.40 1013.04 1012.74 1012.48 1012.26 1012.07 1011.90 1011.76 1011.63 1011.52 1011.41 1011.31 1011.22 1011.15 1011.10 1011.09 1011.12 1011.22 1011.39 1011.62 1011.90 1012.21 1012.53 1012.82 1013.07 1013.26 1013.40 1013.50
1018.18 1017.90 1017.65 1017.45 1017.26 1017.08 1016.88 1016.64 1016.35 1015.99 1015.58 1015.13 1014.65 1014.17 1013.71 1013.28 1012.89 1012.54 1012.24 1011.99 1011.77 1011.59 1011.44 1011.31 1011.18 1011.05 1010.92 1010.77 1010.63 1010.49 1010.39 1010.34 1010.36 1010.47 1010.67 1010.94 1011.26 1011.61 1011.94 1012.24 1012.48 1012.67 1012.80
1018.33 1018.05 1017.82 1017.63 1017.45 1017.26 1017.05 1016.78 1016.46 1016.07 1015.63 1015.15 1014.66 1014.16 1013.67 1013.21 1012.78 1012.40 1012.05 1011.76 1011.50 1011.30 1011.12 1010.97 1010.84 1010.69 1010.53 1010.34 1010.13 1009.91 1009.71 1009.56 1009.48 1009.50 1009.62 1009.85 1010.16 1010.51 1010.88 1011.22 1011.52 1011.77 1011.97
1018.52 1018.26 1018.04 1017.84 1017.65 1017.44 1017.19 1016.89 1016.54 1016.12 1015.66 1015.17 1014.67 1014.16 1013.66 1013.18 1012.72 1012.29 1011.90 1011.55 1011.24 1010.99 1010.79 1010.62 1010.46 1010.30 1010.12 1009.90 1009.63 1009.34 1009.04 1008.78 1008.58 1008.49 1008.52 1008.67 1008.93 1009.27 1009.65 1010.04 1010.41 1010.73 1011.03
1018.75 1018.50 1018.27 1018.06 1017.84 1017.60 1017.31 1016.97 1016.58 1016.14 1015.67 1015.18 1014.68 1014.19 1013.69 1013.20 1012.71 1012.23 1011.78 1011.36 1010.99 1010.68 1010.44 1010.24 1010.07 1009.90 1009.71 1009.46 1009.16 1008.80 1008.42 1008.05 1007.73 1007.52 1007.43 1007.49 1007.68 1007.98 1008.37 1008.79 1009.23 1009.65 1010.04
1018.98 1018.73 1018.50 1018.27 1018.01 1017.73 1017.39 1017.01 1016.59 1016.14 1015.67 1015.19 1014.72 1014.24 1013.75 1013.25 1012.73 1012.21 1011.69 1011.20 1010.77 1010.40 1010.10 1009.87 1009.69 1009.52 1009.33 1009.08 1008.75 1008.35 1007.90 1007.44 1007.01 1006.68 1006.48 1006.43 1006.54 1006.80 1007.17 1007.63 1008.12 1008.63 1009.13
1019.18 1018.94 1018.69 1018.43 1018.14 1017.81 1017.44 1017.02 1016.58 1016.13 1015.68 1015.23 1014.78 1014.33 1013.86 1013.35 1012.81 1012.24 1011.66 1011.11 1010.60 1010.17 1009.83 1009.58 1009.39 1009.23 1009.05 1008.81 1008.48 1008.06 1007.57 1007.04 1006.53 1006.09 1005.79 1005.64 1005.68 1005.88 1006.23 1006.70 1007.24 1007.82 1008.42
1019.30 1019.07 1018.81 1018.53 1018.21 1017.85 1017.45 1017.02 1016.57 1016.13 1015.71 1015.30 1014.89 1014.47 1014.01 1013.51 1012.95 1012.34 1011.71 1011.09 1010.53 1010.05 1009.68 1009.41 1009.23 1009.09 1008.93 1008.72 1008.41 1008.00 1007.49 1006.93 1006.36 1005.85 1005.46 1005.24 1005.21 1005.36 1005.68 1006.15 1006.71 1007.34 1007.99
1019.33 1019.10 1018.84 1018.55 1018.21 1017.84 1017.43 1017.00 1016.57 1016.16 1015.77 1015.40 1015.03 1014.64 1014.21 1013.70 1013.13 1012.50 1011.83 1011.18 1010.58 1010.07 1009.69 1009.42 1009.25 1009.13 1009.01 1008.84 1008.57 1008.19 1007.69 1007.13 1006.54 1006.00 1005.56 1005.29 1005.20 1005.30 1005.59 1006.04 1006.60 1007.24 1007.92
1019.23 1019.02 1018.77 1018.48 1018.15 1017.78 1017.38 1016.98 1016.59 1016.21 1015.87 1015.54 1015.21 1014.85 1014.43 1013.94 1013.37 1012.72 1012.04 1011.37 1010.76 1010.25 1009.86 1009.61 1009.47 1009.39 1009.31 1009.18 1008.96 1008.62 1008.16 1007.62 1007.05 1006.51 1006.07 1005.77 1005.65 1005.72 1005.97 1006.38 1006.91 1007.52 1008.18
1019.01 1018.82 1018.59 1018.32 1018.01 1017.67 1017.31 1016.95 1016.60 1016.28 1015.98 1015.69 1015.40 1015.07 1014.67 1014.19 1013.62 1012.99 1012.31 1011.65 1011.05 1010.56 1010.20 1009.97 1009.86 1009.81 1009.78 1009.70 1009.53 1009.24 1008.84 1008.35 1007.82 1007.32 1006.90 1006.61 1006.48 1006.52 1006.74 1007.10 1007.58 1008.13 1008.72
1018.67 1018.51 1018.30 1018.07 1017.80 1017.51 1017.20 1016.90 1016.61 1016.34 1016.08 1015.84 1015.58 1015.27 1014.89 1014.43 1013.89 1013.27 1012.63 1012.00 1011.43 1010.97 1010.65 1010.45 1010.37 1010.35 1010.35 1010.31 1010.19 1009.96 1009.63 1009.21 1008.75 1008.31 1007.94 1007.68 1007.56 1007.59 1007.77 1008.08 1008.48 1008.94 1009.45
1018.24 1018.10 1017.93 1017.74 1017.52 1017.28 1017.04 1016.80 1016.56 1016.35 1016.14 1015.94 1015.70 1015.42 1015.07 1014.64 1014.13 1013.55 1012.95 1012.37 1011.86 1011.44 1011.15 1010.99 1010.93 1010.94 1010.96 1010.95 1010.87 1010.69 1010.43 1010.09 1009.72 1009.36 1009.05 1008.85 1008.75 1008.78 1008.93 1009.17 1009.48 1009.84 1010.23
1017.73 1017.62 1017.49 1017.34 1017.17 1016.99 1016.81 1016.62 1016.45 1016.29 1016.13 1015.96 1015.75 1015.50 1015.18 1014.79 1014.32 1013.80 1013.26 1012.74 1012.28 1011.92 1011.66 1011.53 1011.48 1011.50 1011.53 1011.54 1011.49 1011.36 1011.16 1010.90 1010.62 1010.35 1010.13 1009.98 1009.91 1009.94 1010.05 1010.23 1010.45 1010.71 1010.98
1017.20 1017.11 1017.00 1016.89 1016.76 1016.63 1016.49 1016.36 1016.23 1016.12 1016.00 1015.87 1015.70 1015.49 1015.21 1014.87 1014.45 1013.99 1013.52 1013.07 1012.67 1012.35 1012.13 1012.02 1011.98 1011.99 1012.02 1012.03 1012.00 1011.92 1011.78 1011.60 1011.40 1011.22 1011.08 1010.99 1010.96 1010.99 1011.06 1011.18 1011.31 1011.46 1011.62
1016.66 1016.58 1016.49 1016.40 1016.29 1016.19 1016.09 1015.99 1015.91 1015.83 1015.75 1015.66 1015.54 1015.37 1015.15 1014.86 1014.52 1014.13 1013.73 1013.34 1013.01 1012.73 1012.54 1012.43 1012.39 1012.40 1012.42 1012.43 1012.42 1012.37 1012.28 1012.17 1012.05 1011.95 1011.88 1011.84 1011.84 1011.86 1011.91 1011.96 1012.01 1012.06 1012.12
1016.15 1016.07 1015.98 1015.89 1015.79 1015.69 1015.61 1015.53 1015.47 1015.43 1015.39 1015.34 1015.27 1015.16 1015.00 1014.79 1014.52 1014.21 1013.88 1013.56 1013.28 1013.05 1012.88 1012.78 1012.73 1012.73 1012.74 1012.75 1012.75 1012.73 1012.68 1012.63 1012.58 1012.55 1012.53 1012.53 1012.55 1012.57 1012.57 1012.57 1012.54 1012.51 1012.48
1015.69 1015.60 1015.50 1015.39 1015.27 1015.16 1015.07 1014.99 1014.95 1014.92 1014.92 1014.92 1014.90 1014.86 1014.77 1014.64 1014.45 1014.22 1013.97 1013.72 1013.49 1013.29 1013.15 1013.05 1013.01 1012.99 1013.00 1013.01 1013.03 1013.03 1013.03 1013.03 1013.03 1013.04 1013.06 1013.09 1013.11 1013.11 1013.09 1013.03 1012.94 1012.84 1012.74
1015.32 1015.20 1015.07 1014.92 1014.77 1014.63 1014.50 1014.41 1014.37 1014.36 1014.38 1014.42 1014.46 1014.49 1014.48 1014.42 1014.32 1014.17 1014.00 1013.81 1013.63 1013.47 1013.35 1013.27 1013.22 1013.22 1013.23 1013.25 1013.28 1013.31 1013.34 1013.38 1013.42 1013.46 1013.50 1013.54 1013.55 1013.53 1013.48 1013.38 1013.25 1013.09 1012.94
1015.03 1014.88 1014.70 1014.51 1014.30 1014.11 1013.95 1013.83 1013.77 1013.76 1013.80 1013.88 1013.97 1014.06 1014.13 1014.15 1014.13 1014.05 1013.95 1013.82 1013.69 1013.57 1013.49 1013.43 1013.40 1013.41 1013.44 1013.48 1013.53 1013.58 1013.64 1013.70 1013.76 1013.82 1013.86 1013.89 1013.90 1013.86 1013.78 1013.65 1013.49 1013.30 1013.12
1014.84 1014.65 1014.42 1014.16 1013.90 1013.65 1013.43 1013.27 1013.18 1013.16 1013.21 1013.31 1013.45 1013.59 1013.72 1013.81 1013.86 1013.86 1013.82 1013.75 1013.68 1013.61 1013.56 1013.53 1013.54 1013.57 1013.63 1013.70 1013.77 1013.85 1013.92 1013.99 1014.06 1014.11 1014.15 1014.17 1014.16 1014.10 1014.01 1013.86 1013.69 1013.49 1013.29
1014.71 1014.48 1014.20 1013.88 1013.55 1013.24 1012.97 1012.76 1012.63 1012.59 1012.63 1012.74 1012.90 1013.08 1013.25 1013.40 1013.51 1013.57 1013.59 1013.59 1013.57 1013.56 1013.56 1013.59 1013.64 1013.71 1013.80 1013.90 1014.00 1014.09 1014.18 1014.25 1014.31 1014.35 1014.37 1014.37 1014.34 1014.28 1014.17 1014.03 1013.86 1013.67 1013.46
Thickness
5679 5679 5679 5679 5679 5678 5678 5678 5678 5678 5677 5677 5677 5676 5676 5676 5676 5676 5676 5676 5675 5675 5674 5674 5673 5672 5671 5670 5669 5668 5667 5666 5665 5663 5662 5661 5660 5659 5658 5658 5657 5656 5656
5673 5673 5672 5672 5672 5672 5672 5671 5671 5671 5671 5671 5670 5671 5671 5670 5670 5669 5669 5669 5669 5669 5668 5668 5667 5667 5666 5665 5664 5663 5661 5660 5659 5658 5657 5656 5655 5654 5653 5652 5651 5651 5650
5666 5666 5665 5665 5665 5665 5664 5664 5664 5664 5663 5663 5663 5664 5664 5664 5664 5663 5663 5663 5663 5662 5662 5661 5661 5660 5660 5659 5658 5657 5656 5655 5653 5652 5651 5650 5649 5648 5647 5646 5646 5645 5645
5659 5658 5658 5658 5658 5657 5657 5656 5656 5655 5655 5654 5655 5656 5657 5657 5657 5656 5655 5655 5655 5655 5654 5653 5653 5653 5653 5652 5651 5651 5650 5649 5647 5646 5645 5644 5643 5642 5642 5641 5640 5640 5639
5651 5651 5651 5650 5650 5650 5649 5649 5648 5646 5646 5645 5646 5648 5648 5648 5649 5649 5648 5647 5647 5647 5646 5645 5645 5644 5644 5644 5643 5643 5642 5641 5640 5640 5638 5638 5637 5637 5636 5635 5635 5634 5634
5643 5643 5643 5643 5643 5642 5641 5640 5639 5638 5637 5637 5638 5639 5639 5640 5641 5640 5640 5639 5638 5637 5637 5637 5636 5635 5635 5634 5634 5634 5633 5633 5632 5632 5631 5631 5631 5630 5630 5630 5629 5629 5628
5634 5634 5634 5634 5634 5633 5632 5631 5630 5629 5628 5628 5628 5628 5630 5631 5631 5631 5631 5630 5629 5628 5628 5627 5626 5625 5624 5624 5623 5623 5623 5623 5623 5623 5623 5623 5624 5624 5624 5624 5624 5623 5623
5626 5625 5625 5625 5625 5625 5624 5623 5622 5620 5620 5619 5617 5616 5616 5619 5621 5622 5621 5620 5619 5618 5618 5617 5616 5615 5614 5613 5612 5612 5611 5612 5613 5614 5615 5615 5616 5616 5617 5618 5618 5618 5618
5617 5616 5617 5616 5616 5616 5615 5614 5613 5612 5610 5609 5608 5606 5605 5605 5606 5610 5610 5609 5608 5608 5607 5607 5605 5604 5603 5602 5602 5601 5601 5601 5602 5604 5605 5607 5607 5608 5609 5610 5611 5611 5611
5608 5608 5608 5608 5607 5607 5606 5605 5605 5604 5602 5600 5598 5597 5597 5596 5594 5596 5598 5598 5597 5597 5597 5596 5595 5593 5592 5591 5590 5590 5590 5591 5592 5594 5595 5598 5599 5600 5601 5601 5602 5603 5603
5601 5601 5600 5600 5599 5598 5598 5597 5597 5595 5594 5592 5590 5588 5587 5586 5584 5583 5586 5587 5586 5587 5586 5585 5584 5582 5581 5581 5580 5579 5580 5580 5582 5583 5586 5588 5589 5590 5591 5591 5592 5593 5593
5592 5592 5592 5591 5591 5590 5590 5589 5588 5587 5585 5584 5582 5580 5578 5577 5576 5574 5575 5576 5576 5577 5576 5574 5573 5572 5571 5570 5570 5570 5570 5570 5571 5573 5575 5577 5578 5579 5580 5581 5581 5582 5583
5584 5584 5584 5583 5583 5583 5582 5581 5580 5578 5577 5575 5573 5571 5570 5569 5567 5566 5565 5565 5566 5567 5566 5565 5563 5562 5561 5560 5559 5559 5559 5560 5562 5563 5565 5566 5567 5567 5568 5569 5571 5571 5572
5576 5576 5575 5575 5575 5575 5574 5573 5571 5570 5568 5566 5565 5563 5561 5560 5558 5557 5556 5555 5555 5556 5556 5555 5553 5552 5551 5550 5550 5550 5550 5550 5551 5552 5553 5555 5555 5556 5557 5558 5559 5560 5561
5568 5568 5567 5567 5567 5566 5566 5564 5563 5561 5559 5558 5556 5555 5553 5551 5550 5548 5547 5545 5545 5546 5548 5546 5543 5542 5541 5540 5540 5540 5540 5540 5541 5541 5542 5543 5544 5545 5545 5546 5547 5548 5549
5560 5560 5559 5559 5558 5558 5557 5556 5554 5553 5551 5549 5548 5546 5544 5542 5541 5539 5538 5536 5535 5535 5536 5536 5533 5531 5530 5530 5529 5529 5529 5530 5530 5531 5531 5532 5533 5533 5534 5534 5535 5536 5537
5552 5551 5551 5550 5549 5549 5548 5546 5545 5544 5542 5540 5539 5537 5536 5534 5532 5530 5528 5526 5525 5523 5524 5524 5521 5520 5519 5518 5518 5518 5518 5519 5518 5519 5519 5520 5521 5521 5521 5522 5522 5523 5524
5544 5543 5542 5541 5540 5540 5538 5537 5535 5534 5532 5531 5529 5527 5526 5525 5522 5520 5518 5517 5515 5514 5513 5512 5511 5509 5508 5507 5506 5506 5507 5507 5507 5507 5507 5507 5508 5508 5509 5509 5510 5510 5511
5536 5535 5533 5532 5531 5530 5529 5527 5525 5524 5522 5521 5519 5517 5516 5514 5512 5510 5508 5506 5504 5503 5501 5500 5499 5497 5496 5495 5494 5494 5494 5495 5495 5495 5494 5494 5494 5495 5496 5496 5497 5497 5498
5528 5526 5525 5524 5523 5521 5520 5518 5516 5514 5512 5510 5509 5507 5505 5503 5502 5500 5498 5496 5494 5492 5490 5489 5488 5486 5483 5482 5481 5480 5481 5481 5481 5482 5481 5481 5481 5481 5482 5483 5484 5485 5485
5520 5519 5517 5515 5514 5512 5511 5508 5506 5504 5502 5500 5499 5497 5495 5493 5492 5490 5489 5486 5484 5482 5480 5478 5477 5475 5472 5469 5467 5467 5467 5467 5468 5468 5467 5467 5467 5468 5468 5469 5470 5471 5471
5512 5511 5509 5507 5505 5504 5502 5500 5498 5495 5492 5490 5489 5487 5485 5484 5483 5482 5480 5478 5476 5473 5471 5468 5466 5464 5461 5458 5456 5455 5454 5453 5455 5455 5453 5454 5454 5454 5454 5456 5457 5457 5458
5504 5502 5501 5498 5496 5495 5493 5491 5489 5485 5483 5481 5479 5477 5476 5475 5473 5471 5470 5468 5466 5464 5463 5459 5456 5453 5450 5448 5446 5444 5442 5440 5440 5440 5439 5441 5441 5440 5441 5442 5443 5443 5443
5495 5494 5492 5490 5487 5486 5485 5482 5480 5476 5473 5471 5469 5468 5466 5465 5464 5462 5460 5457 5455 5453 5451 5449 5446 5444 5441 5438 5436 5434 5431 5430 5428 5427 5426 5426 5427 5426 5428 5428 5429 5429 5429
5487 5485 5483 5481 5479 5477 5476 5473 5470 5466 5464 5462 5460 5458 5457 5456 5455 5453 5450 5447 5444 5442 5441 5439 5436 5433 5431 5429 5426 5423 5420 5418 5418 5416 5413 5412 5413 5413 5415 5416 5416 5415 5415
5478 5476 5474 5472 5470 5468 5466 5464 5461 5457 5455 5452 5450 5449 5448 5447 5446 5443 5440 5437 5435 5433 5430 5428 5425 5422 5420 5417 5415 5412 5409 5406 5404 5404 5402 5400 5399 5398 5402 5405 5403 5402 5401